^^
Meteo Knjazevac Station Historical Data
Daily Summary for April 6, 2022 Units:  English    Metric   Both
Daily Weekly Monthly Yearly Custom
  High: Low: Average:
Temperature: 44.6 °F 38.7 °F 40.4 °F
Dew Point: 42.6 °F 38.4 °F 39.8 °F
Humidity: 99% 91% 98%
Wind Speed: 8mph 0mph 3.4mph
Wind Gust: 9mph - -
Wind- - East
Pressure: 30.26 in 30.09 in -
Precipitation: 0.03 in    
Historical Graphs
 
 
Tabular Data for April 6, 2022
Time Temperature Dew Point Pressure Wind Wind Speed Wind Gust Humidity Rainfall Rate (Hourly) solar Conditions
00:04 39.6 °F 39.3 °F 30.26 in NNW 3.4 mph 4 mph 99% 0.00 in 0 W/m2
00:09 39.6 °F 39.3 °F 30.26 in NNW 3.4 mph 4 mph 99% 0.00 in 0 W/m2
00:14 39.6 °F 39.3 °F 30.26 in NNW 2.5 mph 5 mph 99% 0.00 in 0 W/m2
00:19 39.6 °F 39.3 °F 30.26 in North 2.8 mph 4 mph 99% 0.00 in 0 W/m2
00:24 39.6 °F 39.3 °F 30.26 in North 2.7 mph 4 mph 99% 0.00 in 0 W/m2
00:29 39.6 °F 39.3 °F 30.26 in NNW 3.4 mph 4 mph 99% 0.00 in 0 W/m2
00:34 39.6 °F 39.3 °F 30.26 in NW 3.9 mph 4 mph 99% 0.00 in 0 W/m2
00:39 39.6 °F 39.3 °F 30.26 in NW 4.3 mph 6 mph 99% 0.00 in 0 W/m2
00:44 39.6 °F 39.3 °F 30.25 in NNW 2.9 mph 5 mph 99% 0.00 in 0 W/m2
00:49 39.5 °F 39.2 °F 30.25 in NNW 3.6 mph 5 mph 99% 0.00 in 0 W/m2
00:54 39.4 °F 39.1 °F 30.25 in North 4.9 mph 6 mph 99% 0.00 in 0 W/m2
00:59 39.4 °F 39.1 °F 30.25 in North 5.9 mph 6 mph 99% 0.00 in 0 W/m2
01:04 39.4 °F 39.1 °F 30.25 in North 4.6 mph 7 mph 99% 0.00 in 0 W/m2
01:09 39.4 °F 39.1 °F 30.25 in North 3.5 mph 5 mph 99% 0.00 in 0 W/m2
01:14 39.4 °F 39.1 °F 30.25 in North 3.5 mph 6 mph 99% 0.00 in 0 W/m2
01:19 39.3 °F 39 °F 30.25 in North 4.3 mph 4 mph 99% 0.00 in 0 W/m2
01:24 39.2 °F 38.9 °F 30.25 in North 4.8 mph 6 mph 99% 0.00 in 0 W/m2
01:29 39.2 °F 38.9 °F 30.25 in NNW 5.3 mph 6 mph 99% 0.00 in 0 W/m2
01:34 39.2 °F 38.9 °F 30.25 in NNW 4.3 mph 7 mph 99% 0.00 in 0 W/m2
01:39 39.2 °F 38.9 °F 30.25 in NNW 3.2 mph 5 mph 99% 0.00 in 0 W/m2
01:44 39.2 °F 38.9 °F 30.25 in North 3.3 mph 4 mph 99% 0.00 in 0 W/m2
01:49 39.2 °F 38.9 °F 30.25 in North 3.7 mph 4 mph 99% 0.00 in 0 W/m2
01:54 39 °F 38.8 °F 30.25 in North 2.7 mph 5 mph 99% 0.00 in 0 W/m2
01:59 39.1 °F 38.8 °F 30.25 in North 3.7 mph 4 mph 99% 0.00 in 0 W/m2
02:04 39.1 °F 38.8 °F 30.25 in North 3.9 mph 5 mph 99% 0.00 in 0 W/m2
02:09 39 °F 38.8 °F 30.25 in North 3 mph 5 mph 99% 0.00 in 0 W/m2
02:14 39 °F 38.8 °F 30.25 in North 3.1 mph 4 mph 99% 0.00 in 0 W/m2
02:19 39 °F 38.8 °F 30.25 in North 3.5 mph 4 mph 99% 0.00 in 0 W/m2
02:24 39 °F 38.8 °F 30.25 in North 2.1 mph 5 mph 99% 0.00 in 0 W/m2
02:29 39 °F 38.8 °F 30.24 in NNW 2.3 mph 2 mph 99% 0.00 in 0 W/m2
02:34 39 °F 38.8 °F 30.24 in North 2.2 mph 3 mph 99% 0.00 in 0 W/m2
02:39 39 °F 38.8 °F 30.25 in North 1.4 mph 2 mph 99% 0.00 in 0 W/m2
02:44 39 °F 38.8 °F 30.25 in North 2.8 mph 4 mph 99% 0.00 in 0 W/m2
02:49 39 °F 38.8 °F 30.24 in North 4.4 mph 4 mph 99% 0.00 in 0 W/m2
02:54 39 °F 38.8 °F 30.24 in North 3.6 mph 6 mph 99% 0.00 in 0 W/m2
02:59 39 °F 38.8 °F 30.24 in North 3.1 mph 3 mph 99% 0.00 in 0 W/m2
03:04 39 °F 38.8 °F 30.24 in North 3.3 mph 5 mph 99% 0.00 in 0 W/m2
03:09 39 °F 38.8 °F 30.24 in North 2.1 mph 4 mph 99% 0.00 in 0 W/m2
03:14 39 °F 38.8 °F 30.23 in North 3.3 mph 4 mph 99% 0.00 in 0 W/m2
03:19 39 °F 38.8 °F 30.23 in North 2.9 mph 4 mph 99% 0.00 in 0 W/m2
03:24 39 °F 38.8 °F 30.23 in North 2.1 mph 3 mph 99% 0.00 in 0 W/m2
03:29 38.8 °F 38.6 °F 30.23 in North 3.1 mph 2.2 mph 99% 0.00 in 0 W/m2
03:34 38.8 °F 38.6 °F 30.23 in North 2.5 mph 4 mph 99% 0.00 in 0 W/m2
03:39 38.9 °F 38.7 °F 30.23 in North 2.6 mph 3 mph 99% 0.00 in 0 W/m2
03:44 38.8 °F 38.6 °F 30.23 in NNW 3 mph 4 mph 99% 0.00 in 0 W/m2
03:49 38.8 °F 38.6 °F 30.23 in North 3.8 mph 5 mph 99% 0.00 in 0 W/m2
03:54 38.8 °F 38.6 °F 30.23 in North 2.5 mph 5 mph 99% 0.00 in 0 W/m2
03:59 38.8 °F 38.6 °F 30.23 in North 3.1 mph 3 mph 99% 0.00 in 0 W/m2
04:04 38.8 °F 38.6 °F 30.23 in North 3.2 mph 3 mph 99% 0.00 in 0 W/m2
04:09 38.8 °F 38.6 °F 30.23 in North 2 mph 4 mph 99% 0.00 in 0 W/m2
04:14 38.8 °F 38.6 °F 30.22 in North 1.9 mph 2 mph 99% 0.00 in 0 W/m2
04:19 38.8 °F 38.6 °F 30.22 in North 1.9 mph 2 mph 99% 0.00 in 0 W/m2
04:24 38.8 °F 38.6 °F 30.22 in North 1.5 mph 2 mph 99% 0.00 in 0 W/m2
04:29 38.8 °F 38.6 °F 30.22 in North 2 mph 2 mph 99% 0.00 in 0 W/m2
04:34 38.8 °F 38.6 °F 30.22 in North 2.2 mph 3 mph 99% 0.00 in 0 W/m2
04:39 38.8 °F 38.6 °F 30.22 in Calm   2 mph 99% 0.00 in 0 W/m2
04:44 38.8 °F 38.6 °F 30.22 in NNE 0.1 mph   99% 0.00 in 0 W/m2
04:49 38.8 °F 38.6 °F 30.22 in NNE 0.7 mph 1 mph 99% 0.00 in 0 W/m2
04:54 38.8 °F 38.6 °F 30.22 in North 0.5 mph 1 mph 99% 0.00 in 0 W/m2
04:59 38.8 °F 38.6 °F 30.22 in Calm   1 mph 99% 0.00 in 0 W/m2
05:04 38.8 °F 38.6 °F 30.22 in Calm     99% 0.00 in 0 W/m2
05:09 38.8 °F 38.6 °F 30.22 in NNW 0.5 mph 0.2 mph 99% 0.00 in 0 W/m2
05:14 38.8 °F 38.6 °F 30.22 in NNW 1.4 mph 1 mph 99% 0.00 in 0 W/m2
05:19 38.8 °F 38.6 °F 30.22 in North 0.2 mph 2 mph 99% 0.00 in 0 W/m2
05:24 38.8 °F 38.6 °F 30.22 in North 1.4 mph 1.6 mph 99% 0.00 in 0 W/m2
05:29 38.8 °F 38.6 °F 30.22 in North 2.1 mph 2 mph 99% 0.00 in 0 W/m2
05:34 38.8 °F 38.6 °F 30.22 in North 1.2 mph 2 mph 99% 0.00 in 0 W/m2
05:39 38.8 °F 38.6 °F 30.22 in NNE 2.1 mph 2 mph 99% 0.00 in 0 W/m2
05:44 38.8 °F 38.6 °F 30.21 in NNE 1.7 mph 2 mph 99% 0.00 in 0 W/m2
05:49 38.8 °F 38.6 °F 30.21 in NNE 1.8 mph 2 mph 99% 0.00 in 0 W/m2
05:54 38.8 °F 38.6 °F 30.22 in NNE 1.9 mph 2 mph 99% 0.00 in 0 W/m2
05:59 38.8 °F 38.6 °F 30.22 in NNE 1.1 mph 2 mph 99% 0.00 in 0 W/m2
06:04 38.8 °F 38.6 °F 30.22 in North 0.7 mph 2 mph 99% 0.00 in 0 W/m2
06:09 38.8 °F 38.6 °F 30.22 in NNE 1.1 mph 1.3 mph 99% 0.00 in 0 W/m2
06:14 38.7 °F 38.5 °F 30.22 in NNE 0.9 mph 2 mph 99% 0.00 in 0 W/m2
06:19 38.7 °F 38.4 °F 30.22 in Calm   2 mph 99% 0.00 in 0 W/m2
06:24 38.7 °F 38.4 °F 30.22 in North 0.7 mph 0.2 mph 99% 0.00 in 0 W/m2
06:29 38.7 °F 38.4 °F 30.22 in North 0.6 mph 1 mph 99% 0.00 in 0 W/m2
06:34 38.7 °F 38.4 °F 30.22 in North 0.4 mph 1 mph 99% 0.00 in 0 W/m2
06:39 38.7 °F 38.4 °F 30.21 in NW 0.7 mph 1 mph 99% 0.00 in 0 W/m2
06:44 38.7 °F 38.4 °F 30.21 in North 1 mph 1 mph 99% 0.00 in 1 W/m2
06:49 38.7 °F 38.4 °F 30.21 in NNE 0.4 mph 1 mph 99% 0.00 in 1 W/m2
06:54 38.7 °F 38.4 °F 30.21 in North 0.2 mph 1 mph 99% 0.00 in 2 W/m2
06:59 38.7 °F 38.4 °F 30.21 in North 0.2 mph 1 mph 99% 0.00 in 4 W/m2
07:04 38.7 °F 38.4 °F 30.21 in WNW 0.3 mph   99% 0.00 in 7 W/m2
07:09 38.7 °F 38.4 °F 30.21 in Calm   1 mph 99% 0.00 in 8 W/m2
07:14 38.7 °F 38.4 °F 30.21 in North 1.1 mph 1.3 mph 99% 0.00 in 11 W/m2
07:19 38.7 °F 38.4 °F 30.21 in NNW 0.8 mph 2 mph 99% 0.00 in 15 W/m2
07:24 38.7 °F 38.4 °F 30.21 in Calm   1 mph 99% 0.00 in 18 W/m2
07:29 38.8 °F 38.5 °F 30.21 in WSW 0.7 mph 0.7 mph 99% 0.00 in 23 W/m2
07:34 38.8 °F 38.6 °F 30.21 in WSW 0.7 mph 2 mph 99% 0.00 in 33 W/m2
07:39 38.8 °F 38.6 °F 30.21 in East 0.2 mph 2 mph 99% 0.00 in 33 W/m2
07:44 38.8 °F 38.6 °F 30.21 in East 1 mph 1 mph 99% 0.00 in 34 W/m2
07:49 39 °F 38.8 °F 30.21 in West 0.5 mph 1 mph 99% 0.00 in 34 W/m2
07:54 39 °F 38.8 °F 30.21 in WNW 1.6 mph 1 mph 99% 0.00 in 42 W/m2
07:59 39.2 °F 38.9 °F 30.21 in NW 1.4 mph 2 mph 99% 0.00 in 46 W/m2
08:04 39.2 °F 38.9 °F 30.21 in NW 2 mph 2 mph 99% 0.00 in 46 W/m2
08:09 39.4 °F 39.1 °F 30.21 in WNW 1.5 mph 3 mph 99% 0.00 in 50 W/m2
08:14 39.4 °F 39.1 °F 30.21 in WNW 1.6 mph 2 mph 99% 0.00 in 55 W/m2
08:19 39.5 °F 39.2 °F 30.21 in NW 1.7 mph 2 mph 99% 0.00 in 67 W/m2
08:24 39.6 °F 39.3 °F 30.21 in Calm   2 mph 99% 0.00 in 72 W/m2
08:29 39.6 °F 39.3 °F 30.21 in West 0.4 mph 1.3 mph 99% 0.00 in 76 W/m2
08:34 39.7 °F 39.3 °F 30.21 in WNW 1.7 mph 2 mph 98.6% 0.00 in 75 W/m2
08:39 39.7 °F 39.4 °F 30.21 in WNW 2 mph 2 mph 98.5% 0.00 in 95 W/m2
08:44 39.7 °F 39.2 °F 30.20 in NW 2.2 mph 2 mph 98% 0.00 in 109 W/m2
08:49 39.7 °F 39.2 °F 30.20 in NNW 1.3 mph 2 mph 98% 0.00 in 102 W/m2
08:54 39.7 °F 39.2 °F 30.20 in North 1.4 mph 1.1 mph 98% 0.00 in 80 W/m2
08:59 39.7 °F 39.2 °F 30.20 in NNW 1.3 mph 2 mph 98% 0.00 in 65 W/m2
09:04 39.8 °F 39.3 °F 30.20 in NW 1.8 mph 2 mph 98% 0.00 in 123 W/m2
09:09 40 °F 39.5 °F 30.20 in NNW 1.5 mph 2 mph 98% 0.00 in 160 W/m2
09:14 40.1 °F 39.6 °F 30.20 in NE 2 mph 2 mph 98% 0.00 in 166 W/m2
09:19 40.3 °F 39.8 °F 30.20 in ENE 2.3 mph 2 mph 98% 0.00 in 208 W/m2
09:24 40.8 °F 40.1 °F 30.20 in NE 2.8 mph 2 mph 97.6% 0.00 in 208 W/m2
09:29 41.3 °F 40.2 °F 30.20 in NNE 4.3 mph 4 mph 96% 0.00 in 439 W/m2
09:34 42 °F 40.9 °F 30.19 in NNE 4.9 mph 6 mph 95.7% 0.00 in 439 W/m2
09:39 42.7 °F 41.2 °F 30.19 in NNE 3.9 mph 6 mph 94.6% 0.00 in 267 W/m2
09:44 42.5 °F 40.9 °F 30.19 in NNE 2.5 mph 5 mph 94% 0.00 in 218 W/m2
09:49 42.4 °F 40.8 °F 30.19 in NNE 4.2 mph 3.6 mph 94% 0.00 in 185 W/m2
09:54 42.2 °F 40.6 °F 30.19 in North 3.8 mph 6 mph 94% 0.00 in 124 W/m2
09:59 42.1 °F 40.5 °F 30.19 in North 4.2 mph 5 mph 94% 0.00 in 114 W/m2
10:04 41.9 °F 40.3 °F 30.19 in NNE 5 mph 5 mph 94% 0.00 in 134 W/m2
10:09 42 °F 40.5 °F 30.19 in NNE 4.7 mph 6 mph 94.2% 0.00 in 149 W/m2
10:14 42.2 °F 40.6 °F 30.19 in NNE 4.4 mph 6 mph 94% 0.00 in 141 W/m2
10:19 42.3 °F 40.7 °F 30.19 in NNE 4.3 mph 5 mph 94% 0.00 in 153 W/m2
10:24 42.3 °F 40.8 °F 30.19 in NNE 4.9 mph 5 mph 94.6% 0.00 in 156 W/m2
10:29 42.4 °F 41 °F 30.18 in NNE 5 mph 6 mph 94.5% 0.00 in 156 W/m2
10:34 42.5 °F 41.1 °F 30.18 in North 4.4 mph 6 mph 94.7% 0.00 in 146 W/m2
10:39 42.6 °F 41.1 °F 30.18 in North 5.3 mph 6 mph 94.3% 0.00 in 185 W/m2
10:44 42.6 °F 41 °F 30.17 in North 5.1 mph 6 mph 94.1% 0.00 in 186 W/m2
10:49 42.8 °F 41.2 °F 30.17 in North 5.2 mph 6 mph 94% 0.00 in 165 W/m2
10:54 42.8 °F 41.2 °F 30.17 in North 6.3 mph 6 mph 94% 0.00 in 206 W/m2
10:59 42.8 °F 41.2 °F 30.17 in North 5.9 mph 7 mph 94% 0.00 in 175 W/m2
11:04 42.9 °F 41.3 °F 30.17 in North 4.7 mph 7 mph 94% 0.00 in 168 W/m2
11:09 43.1 °F 41.5 °F 30.17 in NNE 5.3 mph 6 mph 94% 0.00 in 160 W/m2
11:14 43.2 °F 41.6 °F 30.17 in NNE 5.4 mph 6 mph 94% 0.00 in 157 W/m2
11:19 43.2 °F 41.6 °F 30.17 in NNE 5.2 mph 6 mph 94% 0.00 in 141 W/m2
11:24 43.2 °F 41.6 °F 30.17 in NNE 5.2 mph 6 mph 94% 0.00 in 133 W/m2
11:29 43.2 °F 41.6 °F 30.17 in NNE 6.2 mph 7 mph 94% 0.00 in 161 W/m2
11:34 43.2 °F 41.6 °F 30.17 in North 6 mph 7 mph 94% 0.00 in 180 W/m2
11:39 43.2 °F 41.6 °F 30.16 in North 5.8 mph 7 mph 94% 0.00 in 210 W/m2
11:44 43.4 °F 41.8 °F 30.16 in NNE 5.9 mph 7 mph 94% 0.00 in 209 W/m2
11:49 43.5 °F 41.9 °F 30.16 in NNE 7 mph 7 mph 93.8% 0.00 in 254 W/m2
11:54 43.7 °F 42 °F 30.16 in NNE 5.8 mph 8 mph 93.6% 0.00 in 284 W/m2
11:59 44.1 °F 42.2 °F 30.16 in NNE 6 mph 7 mph 93.2% 0.00 in 348 W/m2
12:04 44.3 °F 42.3 °F 30.15 in NNE 5.1 mph 7 mph 92.3% 0.00 in 304 W/m2
12:09 44.5 °F 42.3 °F 30.15 in NNE 5.3 mph 6 mph 91.8% 0.00 in 256 W/m2
12:14 44.6 °F 42.1 °F 30.15 in NNE 6.4 mph 6 mph 91% 0.00 in 233 W/m2
12:19 44.4 °F 42 °F 30.15 in NNE 6.9 mph 8 mph 91% 0.00 in 196 W/m2
12:24 44.2 °F 41.8 °F 30.15 in NNE 6 mph 7 mph 91% 0.00 in 159 W/m2
12:29 44.2 °F 41.8 °F 30.15 in NNE 6.4 mph 7 mph 91% 0.00 in 160 W/m2
12:34 44.1 °F 41.9 °F 30.15 in NNE 6.2 mph 8 mph 91.8% 0.00 in 149 W/m2
12:39 44.2 °F 42.3 °F 30.15 in NNE 5.5 mph 7 mph 93% 0.00 in 164 W/m2
12:44 44.2 °F 42.3 °F 30.14 in NNE 6.2 mph 6 mph 93% 0.00 in 172 W/m2
12:49 44.2 °F 42.3 °F 30.14 in NNE 6.6 mph 7 mph 93% 0.00 in 170 W/m2
12:54 44.2 °F 42.3 °F 30.14 in NNE 6.1 mph 8 mph 93% 0.00 in 155 W/m2
12:59 44.1 °F 42.2 °F 30.14 in North 6.1 mph 7 mph 93% 0.00 in 182 W/m2
13:04 44.1 °F 42.2 °F 30.14 in North 7.3 mph 7 mph 93% 0.00 in 217 W/m2
13:09 44.2 °F 42.3 °F 30.14 in NNE 6.3 mph 8 mph 93% 0.00 in 238 W/m2
13:14 44.3 °F 42.4 °F 30.14 in NNE 4.9 mph 7 mph 93% 0.00 in 282 W/m2
13:19 44.4 °F 42.5 °F 30.14 in NNE 6.4 mph 6 mph 93% 0.00 in 179 W/m2
13:24 44.3 °F 42.4 °F 30.14 in NNE 4.9 mph 7 mph 93% 0.00 in 124 W/m2
13:29 44.2 °F 42.3 °F 30.13 in NNE 5.7 mph 6 mph 93% 0.00 in 111 W/m2
13:34 44.2 °F 42.3 °F 30.13 in NNE 7 mph 8 mph 93% 0.00 in 103 W/m2
13:39 44.1 °F 42.3 °F 30.13 in NNE 5.4 mph 8 mph 93.3% 0.00 in 81 W/m2
13:44 43.8 °F 42.2 °F 30.13 in NNE 6.7 mph 6 mph 94% 0.00 in 71 W/m2
13:49 43.7 °F 42.4 °F 30.13 in NNE 5.9 mph 8 mph 94.9% 0.00 in 81 W/m2
13:54 43.5 °F 42.4 °F 30.13 in NNE 7 mph 8 mph 95.4% 0.00 in 86 W/m2
13:59 43.4 °F 42.4 °F 30.13 in NNE 6.7 mph 8 mph 96% 0.01 in 97 W/m2
14:04 43.3 °F 42.3 °F 30.13 in NNE 8 mph 9 mph 96.5% 0.01 in 94 W/m2
14:09 43.2 °F 42.6 °F 30.13 in North 7 mph 9 mph 98% 0.01 in 94 W/m2
14:14 43 °F 42.5 °F 30.13 in North 6.8 mph 8 mph 98% 0.01 in 83 W/m2
14:19 43 °F 42.6 °F 30.13 in North 6.1 mph 8 mph 98.6% 0.01 in 84 W/m2
14:24 42.9 °F 42.6 °F 30.13 in North 5.8 mph 7 mph 99% 0.01 in 93 W/m2
14:29 42.9 °F 42.6 °F 30.13 in North 6.3 mph 7 mph 99% 0.01 in 86 W/m2
14:34 42.8 °F 42.5 °F 30.13 in North 5.4 mph 7 mph 99% 0.01 in 60 W/m2
14:39 42.8 °F 42.5 °F 30.12 in North 6.1 mph 6 mph 99% 0.01 in 64 W/m2
14:44 42.6 °F 42.4 °F 30.12 in NNE 5.3 mph 7 mph 99% 0.01 in 80 W/m2
14:49 42.6 °F 42.4 °F 30.12 in NNE 5.3 mph 6 mph 99% 0.00 in 96 W/m2
14:54 42.4 °F 42.2 °F 30.12 in NNE 6.1 mph 6 mph 99% 0.00 in 96 W/m2
14:59 42.4 °F 42.2 °F 30.12 in NNE 6.1 mph 7 mph 99% 0.00 in 87 W/m2
15:04 42.4 °F 42.1 °F 30.12 in NNE 5.5 mph 7 mph 99% 0.00 in 56 W/m2
15:09 42.3 °F 42 °F 30.12 in NNE 4.8 mph 6 mph 99% 0.00 in 39 W/m2
15:14 42.1 °F 41.8 °F 30.12 in NNE 4.9 mph 6 mph 99% 0.00 in 34 W/m2
15:19 41.9 °F 41.6 °F 30.12 in NNE 4.7 mph 6 mph 99% 0.00 in 28 W/m2
15:24 41.8 °F 41.6 °F 30.12 in NNE 4.4 mph 6 mph 99% 0.00 in 21 W/m2
15:29 41.7 °F 41.5 °F 30.12 in NNE 5.1 mph 6 mph 99% 0.00 in 17 W/m2
15:34 41.6 °F 41.4 °F 30.12 in NNE 4.4 mph 6 mph 99% 0.00 in 14 W/m2
15:39 41.5 °F 41.3 °F 30.12 in NNE 3.9 mph 5 mph 99% 0.00 in 10 W/m2
15:44 41.5 °F 41.2 °F 30.12 in NNE 4.3 mph 5 mph 99% 0.00 in 8 W/m2
15:49 41.4 °F 41.1 °F 30.12 in NNE 4.3 mph 5 mph 99% 0.00 in 6 W/m2
15:54 41.2 °F 40.9 °F 30.12 in NNE 4.1 mph 5 mph 99% 0.00 in 3 W/m2
15:59 41.1 °F 40.8 °F 30.12 in NNE 3.5 mph 6 mph 99% 0.00 in 2 W/m2
16:04 41 °F 40.7 °F 30.12 in NNE 3.8 mph 4 mph 99% 0.00 in 1 W/m2
16:09 41 °F 40.7 °F 30.12 in NNE 3.3 mph 5 mph 99% 0.00 in 0 W/m2
16:14 40.9 °F 40.6 °F 30.12 in NNE 3.9 mph 4 mph 99% 0.00 in 0 W/m2
16:19 40.8 °F 40.6 °F 30.12 in NNE 4.4 mph 6 mph 99% 0.00 in 0 W/m2
16:24 40.8 °F 40.6 °F 30.12 in NNE 3.8 mph 6 mph 99% 0.00 in 0 W/m2
16:29 40.8 °F 40.6 °F 30.12 in North 4.9 mph 5 mph 99% 0.00 in 0 W/m2
16:34 40.7 °F 40.5 °F 30.12 in NNE 4.8 mph 7 mph 99% 0.00 in 0 W/m2
16:39 40.6 °F 40.4 °F 30.12 in North 5.7 mph 6 mph 99% 0.00 in 0 W/m2
16:44 40.6 °F 40.3 °F 30.12 in North 4.1 mph 7 mph 99% 0.00 in 0 W/m2
16:49 40.5 °F 40.2 °F 30.12 in North 2.5 mph 5 mph 99% 0.00 in 0 W/m2
16:54 40.5 °F 40.2 °F 30.12 in North 4.2 mph 4 mph 99% 0.00 in 0 W/m2
16:59 40.5 °F 40.2 °F 30.12 in North 3 mph 5 mph 99% 0.00 in 0 W/m2
17:04 40.5 °F 40.2 °F 30.12 in NNE 3.5 mph 4 mph 99% 0.00 in 0 W/m2
17:09 40.5 °F 40.2 °F 30.12 in NNE 3.4 mph 5 mph 99% 0.00 in 0 W/m2
17:14 40.4 °F 40.1 °F 30.12 in NNE 3.6 mph 4 mph 99% 0.00 in 0 W/m2
17:19 40.3 °F 40 °F 30.12 in NNE 4.3 mph 5 mph 99% 0.00 in 0 W/m2
17:24 40.3 °F 40 °F 30.11 in NNE 4.4 mph 5 mph 99% 0.00 in 0 W/m2
17:29 40.2 °F 39.9 °F 30.12 in NNE 4.2 mph 5 mph 99% 0.00 in 0 W/m2
17:34 40.2 °F 39.9 °F 30.12 in North 3.6 mph 5 mph 99% 0.00 in 0 W/m2
17:39 40.1 °F 39.8 °F 30.12 in North 3.1 mph 5 mph 99% 0.00 in 0 W/m2
17:44 40.1 °F 39.8 °F 30.11 in NNE 4.6 mph 5 mph 99% 0.00 in 0 W/m2
17:49 40.1 °F 39.8 °F 30.11 in NNE 5 mph 5 mph 99% 0.00 in 0 W/m2
17:54 40.1 °F 39.8 °F 30.12 in NNE 3.7 mph 7 mph 99% 0.00 in 0 W/m2
17:59 40.1 °F 39.8 °F 30.12 in North 3.3 mph 4 mph 99% 0.00 in 0 W/m2
18:04 40.1 °F 39.8 °F 30.12 in North 4.7 mph 4 mph 99% 0.00 in 0 W/m2
18:09 40.1 °F 39.8 °F 30.12 in NNE 3.3 mph 6 mph 99% 0.00 in 0 W/m2
18:14 40 °F 39.8 °F 30.12 in NNE 3 mph 4 mph 99% 0.00 in 0 W/m2
18:19 40.1 °F 39.8 °F 30.12 in North 3 mph 3 mph 99% 0.00 in 0 W/m2
18:24 40.1 °F 39.8 °F 30.12 in North 2.3 mph 3 mph 99% 0.00 in 0 W/m2
18:29 40.1 °F 39.8 °F 30.12 in North 3.2 mph 3 mph 99% 0.00 in 0 W/m2
18:34 40 °F 39.8 °F 30.12 in North 2.1 mph 3 mph 99% 0.00 in 0 W/m2
18:39 40.1 °F 39.8 °F 30.12 in North 1.8 mph 2 mph 99% 0.00 in 0 W/m2
18:44 40.1 °F 39.8 °F 30.12 in North 1.9 mph 2 mph 99% 0.00 in 0 W/m2
18:49 40 °F 39.8 °F 30.12 in NNE 1.7 mph 2 mph 99% 0.00 in 0 W/m2
18:54 40.1 °F 39.8 °F 30.12 in NNE 1.8 mph 2 mph 99% 0.00 in 0 W/m2
18:59 40.1 °F 39.8 °F 30.12 in NNE 2.5 mph 2 mph 99% 0.00 in 0 W/m2
19:04 40.1 °F 39.8 °F 30.12 in NNE 2.9 mph 3 mph 99% 0.00 in 0 W/m2
19:09 40 °F 39.8 °F 30.12 in North 2.6 mph 3 mph 99% 0.00 in 0 W/m2
19:14 39.9 °F 39.7 °F 30.12 in North 2.3 mph 3 mph 99% 0.00 in 0 W/m2
19:19 39.9 °F 39.7 °F 30.12 in NNE 3.1 mph 3 mph 99% 0.00 in 0 W/m2
19:24 39.9 °F 39.7 °F 30.12 in NNE 1.5 mph 3 mph 99% 0.00 in 0 W/m2
19:29 39.9 °F 39.7 °F 30.12 in NNE 1.9 mph 2 mph 99% 0.00 in 0 W/m2
19:34 39.9 °F 39.7 °F 30.12 in NNE 3.5 mph 3.6 mph 99% 0.00 in 0 W/m2
19:39 39.9 °F 39.7 °F 30.12 in NNE 4 mph 5 mph 99% 0.00 in 0 W/m2
19:44 39.8 °F 39.6 °F 30.11 in NNE 3.4 mph 5 mph 99% 0.00 in 0 W/m2
19:49 39.7 °F 39.5 °F 30.11 in NNE 3.5 mph 4 mph 99% 0.00 in 0 W/m2
19:54 39.7 °F 39.5 °F 30.11 in NNE 3.3 mph 4 mph 99% 0.00 in 0 W/m2
19:59 39.7 °F 39.5 °F 30.12 in NNE 4 mph 4 mph 99% 0.00 in 0 W/m2
20:04 39.7 °F 39.5 °F 30.12 in North 3.5 mph 6 mph 99% 0.01 in 0 W/m2
20:09 39.7 °F 39.5 °F 30.12 in North 3.7 mph 4 mph 99% 0.01 in 0 W/m2
20:14 39.7 °F 39.5 °F 30.12 in NNE 2.7 mph 5 mph 99% 0.01 in 0 W/m2
20:19 39.6 °F 39.4 °F 30.12 in North 3.7 mph 3.1 mph 99% 0.01 in 0 W/m2
20:24 39.6 °F 39.3 °F 30.12 in North 4.3 mph 5 mph 99% 0.01 in 0 W/m2
20:29 39.6 °F 39.3 °F 30.12 in North 3.7 mph 5 mph 99% 0.01 in 0 W/m2
20:34 39.6 °F 39.3 °F 30.12 in North 3.9 mph 5 mph 99% 0.01 in 0 W/m2
20:39 39.6 °F 39.3 °F 30.12 in North 3.8 mph 5 mph 99% 0.01 in 0 W/m2
20:44 39.6 °F 39.3 °F 30.12 in North 3 mph 5 mph 99% 0.01 in 0 W/m2
20:49 39.6 °F 39.3 °F 30.12 in North 3.4 mph 4 mph 99% 0.01 in 0 W/m2
20:54 39.6 °F 39.3 °F 30.12 in North 3 mph 4 mph 99% 0.02 in 0 W/m2
20:59 39.6 °F 39.3 °F 30.12 in North 3.8 mph 4 mph 99% 0.02 in 0 W/m2
21:04 39.4 °F 39.1 °F 30.12 in NNE 4.2 mph 5 mph 99% 0.02 in 0 W/m2
21:09 39.4 °F 39.1 °F 30.12 in NNE 3.5 mph 5 mph 99% 0.01 in 0 W/m2
21:14 39.4 °F 39.1 °F 30.12 in North 2.6 mph 5 mph 99% 0.01 in 0 W/m2
21:19 39.4 °F 39.1 °F 30.12 in North 4.1 mph 3.1 mph 99% 0.01 in 0 W/m2
21:24 39.3 °F 39 °F 30.12 in NNE 5.5 mph 6 mph 99% 0.01 in 0 W/m2
21:29 39.2 °F 38.9 °F 30.12 in NNE 3.3 mph 6 mph 99% 0.01 in 0 W/m2
21:34 39.2 °F 38.9 °F 30.12 in North 3.1 mph 3 mph 99% 0.01 in 0 W/m2
21:39 39.2 °F 38.9 °F 30.12 in North 2.8 mph 3 mph 99% 0.01 in 0 W/m2
21:44 39.2 °F 38.9 °F 30.12 in North 3.8 mph 3 mph 99% 0.01 in 0 W/m2
21:49 39.2 °F 38.9 °F 30.12 in North 3.7 mph 5 mph 99% 0.01 in 0 W/m2
21:54 39.2 °F 38.9 °F 30.12 in North 3.4 mph 5 mph 99% 0.00 in 0 W/m2
21:59 39 °F 38.8 °F 30.12 in North 4 mph 4 mph 99% 0.00 in 0 W/m2
22:04 39 °F 38.8 °F 30.12 in NNE 4 mph 5 mph 99% 0.00 in 0 W/m2
22:09 39 °F 38.8 °F 30.12 in NNE 3.5 mph 5 mph 99% 0.00 in 0 W/m2
22:14 39 °F 38.8 °F 30.12 in North 3.4 mph 4 mph 99% 0.00 in 0 W/m2
22:19 39 °F 38.8 °F 30.12 in North 3.7 mph 3 mph 99% 0.00 in 0 W/m2
22:24 39 °F 38.8 °F 30.11 in NNE 3.6 mph 5 mph 99% 0.00 in 0 W/m2
22:29 38.9 °F 38.7 °F 30.11 in NNE 3.9 mph 5 mph 99% 0.00 in 0 W/m2
22:34 38.8 °F 38.6 °F 30.11 in NNE 3.8 mph 5 mph 99% 0.00 in 0 W/m2
22:39 38.8 °F 38.6 °F 30.11 in NNE 2.9 mph 5 mph 99% 0.00 in 0 W/m2
22:44 38.8 °F 38.6 °F 30.11 in NNE 2.1 mph 3 mph 99% 0.00 in 0 W/m2
22:49 38.8 °F 38.6 °F 30.11 in NNE 1.9 mph 2 mph 99% 0.00 in 0 W/m2
22:54 38.8 °F 38.6 °F 30.11 in NNE 2.1 mph 2 mph 99% 0.00 in 0 W/m2
22:59 38.8 °F 38.6 °F 30.11 in North 2.3 mph 3 mph 99% 0.00 in 0 W/m2
23:04 38.8 °F 38.6 °F 30.11 in North 1.7 mph 3 mph 99% 0.00 in 0 W/m2
23:09 38.8 °F 38.6 °F 30.11 in North 0.3 mph 2 mph 99% 0.00 in 0 W/m2
23:14 38.8 °F 38.6 °F 30.11 in NNE 1.2 mph 1.1 mph 99% 0.00 in 0 W/m2
23:19 38.8 °F 38.6 °F 30.10 in North 1 mph 2 mph 99% 0.00 in 0 W/m2
23:24 38.8 °F 38.6 °F 30.10 in NW 1.4 mph 2 mph 99% 0.00 in 0 W/m2
23:29 38.8 °F 38.6 °F 30.10 in NNW 1.4 mph 2 mph 99% 0.00 in 0 W/m2
23:34 38.8 °F 38.6 °F 30.10 in NNW 2.1 mph 2 mph 99% 0.00 in 0 W/m2
23:39 38.8 °F 38.6 °F 30.10 in SE 1.5 mph 2 mph 99% 0.00 in 0 W/m2
23:44 38.8 °F 38.6 °F 30.10 in NW 1.1 mph 2 mph 99% 0.00 in 0 W/m2
23:49 38.8 °F 38.6 °F 30.10 in NNW 1.1 mph 1 mph 99% 0.00 in 0 W/m2
23:54 38.8 °F 38.6 °F 30.10 in ESE 1.1 mph 1 mph 99% 0.00 in 0 W/m2
23:59 38.8 °F 38.6 °F 30.09 in East 0.9 mph 1 mph 99% 0.00 in 0 W/m2
Knjazevac, Serbia
Compliments of Weather Underground - 4 mb